Kelowna, British Columbia

1:03 PM PDT on April 21, 2018 (GMT -0700)
Kelowna

Weather History for CYLW - October, 2013

Change the Weather History Date:

Thursday, October 24, 2013

  Actual Average Record
Temperature  
Mean Temperature 44 °F -  
Max Temperature 45 °F 43 °F 62 °F (2005)
Min Temperature 42 °F 27 °F 21 °F (2002)
Degree Days  
Heating Degree Days 22    
Moisture  
Dew Point 42 °F    
Average Humidity 94    
Maximum Humidity 100    
Minimum Humidity 86    
Precipitation  
Precipitation 0.00 in 0.04 in - ()
Sea Level Pressure  
Sea Level Pressure 30.19 in    
Wind  
Wind Speed 2 mph ()    
Max Wind Speed 5 mph    
Max Gust Speed -    
Visibility 5.9 miles    
Events Rain    
Averages and records for this station are not official NWS values.
T = Trace of Precipitation, MM = Missing Value Source: Averaged Metar Reports

Daily Weather History Graph

Daily Weather History Graph

Search for Another Location

Airport or City:

Astronomy

Oct. 24, 2013 Rise Set
Actual Time 7:34 AM PDT 5:47 PM PDT
Civil Twilight 7:01 AM PDT 6:21 PM PDT
Nautical Twilight 6:23 AM PDT 6:58 PM PDT
Astronomical Twilight 5:46 AM PDT 7:36 PM PDT
Moon 10:04 PM PDT (10/24) 12:51 PM PDT (10/24)
Length of Visible Light 11h 19m
Length of Day
10h 13m
Waning Gibbous, 70% of the Moon is Illuminated
Oct 24
Waning Gibbous
Oct 26
Last Quarter
Nov 3
New
Nov 9
First Quarter
Nov 17
Full

Hourly Weather History & Observations

Time (PDT) Temp. Windchill Dew Point Humidity Pressure Visibility Wind Dir Wind Speed Gust Speed Precip Events Conditions
12:00 AM 42.8 °F - 41.0 °F 93% 30.21 in 9.0 mi Variable 2.3 mph - N/A   Overcast
12:29 AM 42.8 °F - 41.0 °F 93% 30.21 in 5.0 mi East 2.3 mph - N/A   Overcast
1:00 AM 42.8 °F - 41.0 °F 93% 30.21 in 3.0 mi Calm Calm - N/A   Overcast
1:04 AM 42.8 °F - 41.0 °F 93% 30.21 in 2.5 mi Calm Calm - N/A   Overcast
1:24 AM 42.8 °F - 41.0 °F 93% 30.21 in 1.2 mi Variable 2.3 mph - N/A   Overcast
1:46 AM 42.8 °F - 41.0 °F 93% 30.21 in 1.5 mi Calm Calm - N/A   Overcast
2:00 AM 42.8 °F - 42.8 °F 100% 30.20 in 2.5 mi Calm Calm - N/A   Overcast
2:29 AM 42.8 °F - 42.8 °F 100% 30.20 in 3.0 mi Variable 2.3 mph - N/A   Overcast
2:48 AM 42.8 °F - 41.0 °F 93% 30.20 in 6.0 mi ESE 2.3 mph - N/A   Overcast
2:58 AM 42.8 °F 40.1 °F 42.8 °F 100% 30.20 in 5.0 mi Variable 4.6 mph - N/A   Overcast
3:00 AM 42.8 °F 41.1 °F 42.8 °F 100% 30.20 in 5.0 mi Variable 3.5 mph - N/A   Overcast
3:28 AM 42.8 °F 41.1 °F 41.0 °F 93% 30.20 in 6.0 mi ENE 3.5 mph - N/A   Overcast
3:45 AM 42.8 °F - 41.0 °F 93% 30.20 in 5.0 mi NE 2.3 mph - N/A   Overcast
4:00 AM 42.8 °F - 41.0 °F 93% 30.20 in 4.0 mi NE 2.3 mph - N/A   Overcast
4:36 AM 42.8 °F 40.1 °F 41.0 °F 93% 30.19 in 6.0 mi East 4.6 mph - N/A   Overcast
5:00 AM 43 °F - 41 °F 91% 30.19 in 10 mi ENE 4.6 mph - -   Overcast
5:00 AM 42.8 °F 40.1 °F 41.0 °F 93% 30.19 in 9.0 mi ENE 4.6 mph - N/A   Overcast
6:00 AM 42.8 °F - 41.0 °F 93% 30.20 in 6.0 mi SSW 2.3 mph - N/A   Overcast
6:02 AM 42.8 °F - 41.0 °F 93% 30.20 in 5.0 mi SSW 2.3 mph - N/A   Overcast
6:21 AM 42.8 °F 41.1 °F 41.0 °F 93% 30.19 in 2.5 mi South 3.5 mph - N/A   Overcast
6:26 AM 42.8 °F 41.1 °F 42.8 °F 100% 30.19 in 1.8 mi South 3.5 mph - N/A Rain Light Rain
6:30 AM 42.8 °F 41.1 °F 42.8 °F 100% 30.19 in 1.2 mi SSW 3.5 mph - N/A Rain Light Rain
6:49 AM 42.8 °F 41.1 °F 42.8 °F 100% 30.19 in 1.5 mi South 3.5 mph - N/A Rain Light Rain
7:00 AM 42.8 °F 41.1 °F 42.8 °F 100% 30.19 in 1.8 mi South 3.5 mph - N/A Rain Light Rain
7:30 AM 42.8 °F 41.1 °F 41.0 °F 93% 30.19 in 2.5 mi South 3.5 mph - N/A   Overcast
7:32 AM 42.8 °F 41.1 °F 42.8 °F 100% 30.19 in 2.5 mi South 3.5 mph - N/A Rain Light Rain
8:00 AM 42.8 °F - 41.0 °F 93% 30.20 in 2.0 mi South 2.3 mph - N/A Rain Light Rain
8:04 AM 42.8 °F - 41.0 °F 93% 30.20 in 3.0 mi South 2.3 mph - N/A Rain Light Rain
8:10 AM 42.8 °F - 42.8 °F 100% 30.20 in 4.0 mi South 2.3 mph - N/A   Overcast
8:26 AM 42.8 °F 41.1 °F 42.8 °F 100% 30.20 in 2.5 mi South 3.5 mph - N/A   Overcast
8:47 AM 42.8 °F 41.1 °F 42.8 °F 100% 30.21 in 2.0 mi South 3.5 mph - N/A Rain Light Rain
8:52 AM 42.8 °F 40.1 °F 42.8 °F 100% 30.20 in 3.0 mi South 4.6 mph - N/A Rain Light Rain
8:56 AM 42.8 °F 40.1 °F 42.8 °F 100% 30.20 in 4.0 mi South 4.6 mph - N/A   Overcast
9:00 AM 42.8 °F - 42.8 °F 100% 30.21 in 5.0 mi South 2.3 mph - N/A   Overcast
9:10 AM 42.8 °F 41.1 °F 42.8 °F 100% 30.21 in 6.0 mi South 3.5 mph - N/A   Overcast
10:00 AM 42.8 °F 41.1 °F 41.0 °F 93% 30.21 in 7.0 mi SSW 3.5 mph - N/A   Overcast
10:01 AM 42.8 °F 41.1 °F 41.0 °F 93% 30.21 in 5.0 mi South 3.5 mph - N/A   Overcast
10:11 AM 42.8 °F - 41.0 °F 93% 30.21 in 8.0 mi South 2.3 mph - N/A   Overcast
11:00 AM 43 °F - 41 °F 90% 30.21 in 10 mi East 1.2 mph - -   Overcast
11:00 AM 42.8 °F - 41.0 °F 93% 30.21 in 9.0 mi Calm Calm - N/A   Overcast
12:00 PM 44.6 °F - 41.0 °F 87% 30.21 in 9.0 mi Calm Calm - N/A   Overcast
1:00 PM 44.6 °F - 42.8 °F 93% 30.19 in 9.0 mi Variable 2.3 mph - N/A   Overcast
2:00 PM 44.6 °F - 41.0 °F 87% 30.17 in 9.0 mi Variable 2.3 mph - N/A   Overcast
3:00 PM 46.4 °F 45.2 °F 42.8 °F 87% 30.15 in 9.0 mi NNW 3.5 mph - N/A   Overcast
4:00 PM 44.6 °F - 42.8 °F 93% 30.15 in 9.0 mi Variable 2.3 mph - N/A   Overcast
4:24 PM 46.4 °F 45.2 °F 42.8 °F 87% 30.15 in 9.0 mi SW 3.5 mph - N/A   Overcast
5:00 PM 45 °F - 42 °F 87% 30.15 in 10 mi South 3.5 mph - -   Overcast
5:00 PM 44.6 °F - 42.8 °F 93% 30.14 in 9.0 mi South 2.3 mph - N/A   Overcast
5:06 PM 44.6 °F - 42.8 °F 93% 30.15 in 9.0 mi Variable 2.3 mph - N/A   Overcast
6:00 PM 44.6 °F - 42.8 °F 93% 30.16 in 9.0 mi Calm Calm - N/A   Overcast
7:00 PM 44.6 °F - 42.8 °F 93% 30.16 in 9.0 mi Variable 2.3 mph - N/A   Overcast
8:00 PM 44.6 °F - 42.8 °F 93% 30.18 in 9.0 mi Calm Calm - N/A   Overcast
9:00 PM 44.6 °F 43.1 °F 42.8 °F 93% 30.19 in 9.0 mi ENE 3.5 mph - N/A   Overcast
9:34 PM 44.6 °F - 42.8 °F 93% 30.20 in 9.0 mi Calm Calm - N/A   Overcast
10:00 PM 44.6 °F - 42.8 °F 93% 30.21 in 9.0 mi Variable 2.3 mph - N/A   Overcast
11:00 PM 45 °F - 42 °F 86% 30.22 in 10 mi SSW 2.3 mph - -   Overcast
11:00 PM 44.6 °F - 42.8 °F 93% 30.22 in 9.0 mi SSW 2.3 mph - N/A   Overcast